Content
SEND FEEDBACK

Daily
Averages
Monthly
Summary
United States of America

AUBURN, CALIFORNIA


Home > North America > United States > California
Elevation: 1279 feet     Latitude: 38 53N     Longitude: 121 04W

WEATHER
 
SELECT A DAY
Number of Records: 291,506;   Date Range: 8/19/02 - 7/29/14
 
SHARE

PRINT THIS DATA

[ ← Previous Day ]
WEATHER ALMANAC - JANUARY 10, 2013
[ Next Day → ]
[ °C ]   °F
Weather ElementAverageHighLow
Temperature37.2 °F44.6 °F (11:35 am)32 °F (6:55 pm)
Dewpoint32.7 °F37.4 °F (1:35 am)30.2 °F (3:15 pm)
Humidity85.3 %100 % (12:35 am)57 % (3:15 pm)
Barometer30.05 in30.11 in (10:55 pm)29.99 in (12:35 am)
Wind Speed3.2 mph9.2 mph (1:35 pm)
Weather ElementAverage
Visibility9.9 mi
Wind DirectionESE (110.2 °)

Weather ElementTotal
Precipitation0.01 in
Heating Degree Days26.7 (Base 65)
Averaged from 65 records on January 10, 2013
WEATHER CONDITIONS BREAKOUT
WIND DIRECTION BREAKOUT
WEATHER BY HOUR - JANUARY 10, 2013
[ °C ]   °F
Local TimeTemperatureDewpointHumidityBarometerVisibilityWind DirectionWind SpeedGust SpeedPrecipitationEventsConditions
12:35 AM35.6 °F35.6 °F100 %29.99 in8.0 miCalm0.01 inMostly Cloudy
1:15 AM37.4 °F35.6 °F93 %30.00 in9.0 miCalmMostly Cloudy
1:35 AM37.4 °F37.4 °F100 %30.00 in10.0 miSE (140°)4.6 mphMostly Cloudy
2:15 AM37.4 °F37.4 °F100 %30.01 in10.0 miSE (130°)3.5 mphOvercast
2:35 AM37.4 °F37.4 °F100 %30.01 in9.0 miSE (140°)4.6 mphOvercast
2:55 AM37.4 °F35.6 °F93 %30.01 in10.0 miSE (130°)4.6 mphScattered Clouds
3:15 AM35.6 °F35.6 °F100 %30.02 in10.0 miESE (110°)4.6 mphPartly Cloudy
3:35 AM35.6 °F35.6 °F100 %30.02 in10.0 miESE (110°)5.8 mphMostly Cloudy
3:55 AM35.6 °F35.6 °F100 %30.02 in10.0 miCalmMostly Cloudy
4:15 AM35.6 °F35.6 °F100 %30.01 in10.0 miCalmMostly Cloudy
4:35 AM35.6 °F33.8 °F93 %30.01 in10.0 miESE (110°)3.5 mphScattered Clouds
4:55 AM35.6 °F35.6 °F100 %30.01 in10.0 miCalmPartly Cloudy
5:15 AM35.6 °F33.8 °F93 %30.01 in10.0 miCalmClear
5:35 AM33.8 °F33.8 °F100 %30.01 in10.0 miESE (110°)6.9 mphClear
5:55 AM33.8 °F33.8 °F100 %30.02 in10.0 miEast (100°)6.9 mphClear
6:15 AM33.8 °F33.8 °F100 %30.01 in10.0 miEast (100°)6.9 mphClear
6:35 AM33.8 °F33.8 °F100 %30.02 in10.0 miESE (110°)6.9 mphClear
7:15 AM33.8 °F32.0 °F93 %30.03 in10.0 miEast (100°)4.6 mphClear
7:35 AM33.8 °F32.0 °F93 %30.03 in10.0 miEast (100°)3.5 mphClear
7:55 AM33.8 °F32.0 °F93 %30.04 in10.0 miCalmClear
8:15 AM33.8 °F33.8 °F100 %30.04 in10.0 miCalmClear
8:35 AM35.6 °F33.8 °F93 %30.05 in10.0 miEast (100°)3.5 mphClear
9:15 AM37.4 °F33.8 °F87 %30.06 in10.0 miCalmClear
9:35 AM39.2 °F35.6 °F87 %30.06 in10.0 miEast (100°)3.5 mphClear
10:15 AM41.0 °F33.8 °F76 %30.07 in10.0 miCalmClear
10:35 AM42.8 °F33.8 °F70 %30.06 in10.0 miCalmClear
10:55 AM42.8 °F32.0 °F66 %30.06 in10.0 miNW (320°)4.6 mphClear
11:15 AM42.8 °F32.0 °F66 %30.06 in10.0 miNW (320°)6.9 mphClear
11:35 AM44.6 °F33.8 °F66 %30.05 in10.0 miWNW (300°)8.1 mphScattered Clouds
11:55 AM42.8 °F32.0 °F66 %30.04 in10.0 miWNW (300°)6.9 mphScattered Clouds
12:15 PM44.6 °F32.0 °F61 %30.03 in10.0 miWNW (290°)6.9 mphPartly Cloudy
12:35 PM44.6 °F32.0 °F61 %30.03 in10.0 miWest (280°)8.1 mphPartly Cloudy
12:55 PM44.6 °F32.0 °F61 %30.03 in10.0 miWNW (300°)8.1 mphScattered Clouds
1:15 PM44.6 °F32.0 °F61 %30.03 in10.0 miWest (280°)8.1 mphClear
1:35 PM44.6 °F32.0 °F61 %30.02 in10.0 miWNW (300°)9.2 mphClear
1:55 PM44.6 °F32.0 °F61 %30.02 in10.0 miWNW (300°)5.8 mphClear
2:15 PM44.6 °F32.0 °F61 %30.03 in10.0 miWNW (300°)9.2 mphClear
2:35 PM44.6 °F32.0 °F61 %30.03 in10.0 miWNW (290°)9.2 mphClear
2:55 PM44.6 °F32.0 °F61 %30.03 in10.0 miWNW (290°)6.9 mphClear
3:15 PM44.6 °F30.2 °F57 %30.03 in10.0 miWNW (290°)8.1 mphClear
3:35 PM42.8 °F30.2 °F61 %30.03 in10.0 miNW (320°)5.8 mphClear
4:15 PM42.8 °F32.0 °F66 %30.04 in10.0 miWNW (290°)5.8 mphClear
4:35 PM41.0 °F32.0 °F70 %30.03 in10.0 miWNW (300°)4.6 mphClear
4:55 PM39.2 °F32.0 °F75 %30.04 in10.0 miWNW (300°)5.8 mphClear
5:15 PM39.2 °F30.2 °F70 %30.04 in10.0 miCalmClear
5:35 PM35.6 °F32.0 °F87 %30.05 in10.0 miCalmClear
5:55 PM35.6 °F32.0 °F87 %30.06 in10.0 miCalmClear
6:15 PM35.6 °F32.0 °F87 %30.06 in10.0 miCalmClear
6:35 PM33.8 °F32.0 °F93 %30.06 in10.0 miCalmClear
6:55 PM32.0 °F32.0 °F100 %30.07 in10.0 miCalmClear
7:15 PM32.0 °F32.0 °F100 %30.07 in10.0 miCalmClear
7:35 PM32.0 °F30.2 °F93 %30.07 in10.0 miCalmClear
7:55 PM32.0 °F32.0 °F100 %30.07 in10.0 miCalmClear
8:15 PM32.0 °F30.2 °F93 %30.08 in10.0 miCalmClear
8:35 PM32.0 °F30.2 °F93 %30.08 in10.0 miCalmClear
8:55 PM32.0 °F32.0 °F100 %30.08 in10.0 miCalmClear
9:15 PM32.0 °F30.2 °F93 %30.09 in10.0 miCalmClear
9:35 PM32.0 °F30.2 °F93 %30.09 in10.0 miCalmClear
9:55 PM32.0 °F30.2 °F93 %30.10 in10.0 miCalmClear
10:15 PM32.0 °F30.2 °F93 %30.10 in10.0 miCalmClear
10:35 PM32.0 °F30.2 °F93 %30.10 in10.0 miCalmPartly Cloudy
10:55 PM32.0 °F30.2 °F93 %30.11 in10.0 miCalmPartly Cloudy
11:15 PM32.0 °F30.2 °F93 %30.11 in10.0 miCalmClear
11:35 PM32.0 °F30.2 °F93 %30.10 in10.0 miCalmClear
11:55 PM32.0 °F30.2 °F93 %30.10 in10.0 miEast (100°)4.6 mphClear
Hourly data recorded from KAUN, located miles away from Auburn, California







STORIES FROM OUR PARTNERS